Location: *
(51.1248°S, 108.4023°W)
Time: 08:03:28
(UTC+00:00)

Envisat - Pass Details

Date: 01 October 2021
Orbit: 764 x 766 km, 98.2° (Epoch: 27 October)

Event Time Altitude Azimuth Distance (km) Brightness Sun altitude
Rises 02:40:21 0° 178° (S) 3,279 6.5 -12.3°
Reaches altitude 10° 02:44:02 10° 205° (SSW) 2,344 6.2 -12.9°
Maximum altitude 02:46:11 13° 230° (SW) 2,155 6.5 -13.2°
Drops below altitude 10° 02:48:20 10° 255° (WSW) 2,335 6.9 -13.5°
Sets 02:51:59 0° 282° (WNW) 3,253 7.2 -14.0°
